FENGYUN 1C DEB

Satellite information

Favourite Embed

Satellite Type and Status

DEBRISIN ORBIT

Key statistics

Satellite FENGYUN 1C DEB at a glance.

Uptime

9618

Days in orbit

Revolutions

≈ 13.9

Per day

Orbit

SSO

Sun Synchronous Orbit

Inclination

96.1

Latest

Satellite identification and parameters

Extended collection of information and parameters for FENGYUN 1C DEB.

Object identification

Identified? True

Debris? True

Object name: FENGYUN 1C DEB

International designator: 1999-025DXR

Object number (NORAD): 36647

Object ID (CCSDS): 36647

Country: PEOPLES REPUBLIC OF CHINA (PRC)

Current information (Y/N): Y

RCS size: SMALL

Orbital parameters

Period: 103.758 minutes

Inclination: 96.1208 deg

SMA: 7314.351 km

Apoapsis: 1112.916 km

Periapsis: 759.516 km

RAAN: 58.27 deg

Eccentricy: 0.02415797

Argument of periapsis: 246.4285 deg

Mean anomaly: 111.1341 deg

Mean motion: 13.87838855 rev/day

Mean motion (dot): 0.00002996 rev/day2

B* drag term: 0.0020167135 1/REarth

Two-line elements (TLE)

Creation date: Aug. 30, 2025, 3:38 a.m.

Reference frame: TEME

Reference center: EARTH

Epoch: Aug. 29, 2025, 5:38 p.m. UTC

TLE line 0: 0 FENGYUN 1C DEB

TLE line 1: 1 36647U 99025DXR 25241.73527961 .00002996 00000-0 20167-2 0 9999

TLE line 2: 2 36647 96.1208 58.2700 0241580 246.4285 111.1341 13.87838855289554

Live tracking on map

Real-time ground track for satellite FENGYUN 1C DEB.

In-orbit conjunctions

A list of the most updated potential collisions computed for object FENGYUN 1C DEB.

Target Orbit TCA Probability of collision Miss distance Type
DMSP 5D-3 F17 DEB SSO 2024-12-12 05:27:06 0.0001117194 286.0 (m) DEBRIS
CZ-4C R/B LEO 2024-07-01 06:57:57 0.0001618129 588.0 (m) ROCKET BODY

Associated space launch

Chinese polar orbiting meteorological satellite

FENGYUN 1C DEB was lifted into orbit during the mission ‘Long March 4B | Feng Yun 1C’, on board a Long March 4B space rocket.

The launch took place on May 10, 1999, 1:33 a.m. from Launch Complex 7.

For more information about the launch, click the button.

Launch to space Long March 4B | Feng Yun 1C
Long March 4B | Feng Yun 1C

Agency: N/A

Status: Launch Successful

Launch date: May 10, 1999, 1:33 a.m. UTC

Rocket: Long March 4B

Launch pad: Launch Complex 7

Location: Taiyuan Satellite Launch Center, People's Republic of China

...

Latest news about this satellite

There are no fresh news available about this satellite. Check back as we update our databases every day.


Newsletter sign-up

Weekly statistics, charts and insights to help you stay on top of the space industry.